FW8419 Weather Reports


Display with metric or nautical units.
time (UTC)temp
F
wind
direction
speed
MPH
gust
MPH
rain 1hr
in
rain 24hr
in
rain mn
in
humidity
%
barometer
mb
20260905214122 73 266 4.0 14.0 0.00 0.00 0.00 58 1016.0
20260905213122 72 281 4.0 16.0 0.00 0.00 0.00 59 1016.1
20260905212122 72 265 4.0 14.0 0.00 0.00 0.00 58 1016.1
20260905211122 72 288 4.0 18.0 0.00 0.00 0.00 59 1016.1
20260905210143 72 298 3.0 11.0 0.00 0.00 0.00 58 1016.1
20260905205122 72 278 4.0 16.0 0.00 0.00 0.00 57 1016.2
20260905204123 72 287 3.0 13.0 0.00 0.00 0.00 57 1016.2
20260905203124 72 268 3.0 13.0 0.00 0.00 0.00 56 1016.3
20260905202124 71 270 4.0 14.0 0.00 0.00 0.00 56 1016.3
20260905201145 71 235 4.0 11.0 0.00 0.00 0.00 57 1016.3
20260905200124 71 256 3.0 13.0 0.00 0.00 0.00 57 1016.4
20260905195145 70 266 5.0 16.0 0.00 0.00 0.00 60 1016.4
20260905194122 70 267 4.0 16.0 0.00 0.00 0.00 61 1016.5
20260905193143 70 249 4.0 13.0 0.00 0.00 0.00 61 1016.5
20260905192122 70 237 5.0 14.0 0.00 0.00 0.00 62 1016.6
20260905191122 70 282 3.0 13.0 0.00 0.00 0.00 62 1016.6
20260905190123 69 239 1.0 10.0 0.00 0.00 0.00 62 1016.7
20260905185124 69 298 2.0 11.0 0.00 0.00 0.00 62 1016.7
20260905184143 68 2 0.0 3.0 0.00 0.00 0.00 63 1016.8
20260905183122 67 30 3.0 8.0 0.00 0.00 0.00 65 1016.9
20260905182143 67 354 2.0 11.0 0.00 0.00 0.00 65 1016.9
20260905181125 66 32 2.0 6.0 0.00 0.00 0.00 70 1017.0
20260905180122 65 25 2.0 6.0 0.00 0.00 0.00 69 1016.9
20260905175124 65 0 2.0 6.0 0.00 0.00 0.00 69 1017.0
20260905174145 65 15 3.0 11.0 0.00 0.00 0.00 67 1017.1
20260905173145 64 355 3.0 8.0 0.00 0.00 0.00 70 1017.1
20260905172122 64 336 2.0 8.0 0.00 0.00 0.00 70 1017.1
20260905171123 63 21 2.0 6.0 0.00 0.00 0.00 74 1017.0
20260905170145 63 30 2.0 6.0 0.00 0.00 0.00 76 1017.1
20260905165122 62 24 2.0 6.0 0.00 0.00 0.00 76 1017.1
20260905164124 63 25 2.0 6.0 0.00 0.00 0.00 76 1017.1
20260905163122 63 28 2.0 6.0 0.00 0.00 0.00 77 1017.1
20260905162122 63 31 1.0 6.0 0.00 0.00 0.00 76 1017.2
20260905161143 63 0 0.0 2.0 0.00 0.00 0.00 77 1017.1
20260905160124 62 63 1.0 5.0 0.00 0.00 0.00 78 1017.1
20260905155122 62 0 0.0 0.0 0.00 0.00 0.00 79 1017.1
20260905154122 61 61 1.0 3.0 0.00 0.00 0.00 82 1017.3
20260905153122 60 0 0.0 0.0 0.00 0.00 0.00 85 1017.3
20260905152124 59 0 0.0 0.0 0.00 0.00 0.00 90 1017.3
20260905151143 57 0 0.0 0.0 0.00 0.00 0.00 92 1017.1
20260905150124 56 169 1.0 3.0 0.00 0.00 0.00 91 1016.9
20260905145122 56 0 0.0 0.0 0.00 0.00 0.00 91 1017.0
20260905144123 56 0 0.0 0.0 0.00 0.00 0.00 91 1017.0
20260905143125 56 0 0.0 0.0 0.00 0.00 0.00 91 1016.9
20260905142122 56 164 0.0 3.0 0.00 0.00 0.00 91 1016.9
20260905141122 56 0 0.0 0.0 0.00 0.00 0.00 91 1016.8
20260905140143 56 0 0.0 0.0 0.00 0.00 0.00 91 1016.8
20260905135122 56 0 0.0 0.0 0.00 0.00 0.00 90 1016.7
20260905134145 57 0 0.0 0.0 0.00 0.00 0.00 90 1016.6
20260905133143 57 67 0.0 2.0 0.00 0.00 0.00 90 1016.7
20260905132122 57 67 0.0 2.0 0.00 0.00 0.00 90 1016.7
20260905131124 57 0 0.0 0.0 0.00 0.00 0.00 91 1016.9
20260905130122 57 57 0.0 3.0 0.00 0.00 0.00 90 1016.9
20260905125124 57 0 0.0 0.0 0.00 0.00 0.00 90 1016.6
20260905124122 57 0 0.0 0.0 0.00 0.00 0.00 90 1016.5
20260905123122 57 0 0.0 0.0 0.00 0.00 0.00 89 1016.6
20260905122122 57 0 0.0 0.0 0.00 0.00 0.00 90 1016.6
20260905121122 57 0 0.0 0.0 0.00 0.00 0.00 90 1016.5
20260905120122 57 0 0.0 0.0 0.00 0.00 0.00 90 1016.5
20260905115124 57 0 0.0 0.0 0.00 0.00 0.00 90 1016.4
20260905114122 57 0 0.0 0.0 0.00 0.00 0.00 89 1016.3
20260905113124 57 0 0.0 0.0 0.00 0.00 0.00 89 1016.3
20260905112122 57 0 0.0 0.0 0.00 0.00 0.00 89 1016.1
20260905111123 58 0 0.0 0.0 0.00 0.00 0.00 89 1016.2
20260905110124 58 0 0.0 0.0 0.00 0.00 0.00 89 1016.1
20260905105144 58 0 0.0 0.0 0.00 0.00 0.00 89 1015.9
20260905104122 58 0 0.0 0.0 0.00 0.00 0.00 89 1016.0
20260905103124 58 0 0.0 0.0 0.00 0.00 0.00 89 1016.1
20260905102122 58 0 0.0 0.0 0.00 0.00 0.00 88 1016.0
20260905101124 58 0 0.0 0.0 0.00 0.00 0.00 88 1016.0
20260905100143 58 0 0.0 0.0 0.00 0.00 0.00 89 1016.0
20260905095122 58 0 0.0 0.0 0.00 0.00 0.00 88 1016.1
20260905094143 59 0 0.0 0.0 0.00 0.00 0.00 88 1016.0
20260905093143 59 0 0.0 0.0 0.00 0.00 0.00 88 1016.1
20260905092122 59 0 0.0 0.0 0.00 0.00 0.00 87 1016.1
20260905091122 59 0 0.0 0.0 0.00 0.00 0.00 87 1016.0
20260905090124 59 0 0.0 0.0 0.00 0.00 0.00 87 1016.1
20260905085122 59 0 0.0 0.0 0.00 0.00 0.00 88 1016.2
20260905084122 59 101 1.0 3.0 0.00 0.00 0.00 88 1016.1
20260905083122 59 101 1.0 3.0 0.00 0.00 0.00 88 1016.0
20260905082122 59 101 0.0 3.0 0.00 0.00 0.00 88 1016.0
20260905081146 59 101 0.0 3.0 0.00 0.00 0.00 87 1015.9
20260905080143 59 101 1.0 3.0 0.00 0.00 0.00 86 1015.9
20260905075122 59 101 1.0 3.0 0.00 0.00 0.00 86 1015.8
20260905074122 59 118 1.0 5.0 0.00 0.00 0.00 86 1015.9
20260905073122 59 113 2.0 5.0 0.00 0.00 0.00 86 1015.8
20260905072122 59 123 1.0 3.0 0.00 0.00 0.00 86 1015.9
20260905071124 59 123 1.0 5.0 0.00 0.00 0.00 86 1015.7
20260905070122 59 0 0.0 0.0 0.00 0.00 0.00 86 1015.6
20260905065124 60 0 0.0 0.0 0.00 0.00 0.00 86 1015.5
20260905064124 59 0 0.0 0.0 0.00 0.00 0.00 86 1015.6
20260905063124 59 0 0.0 0.0 0.00 0.00 0.00 86 1015.5
20260905062143 60 0 0.0 0.0 0.00 0.00 0.00 86 1015.4
20260905061122 60 0 0.0 0.0 0.00 0.00 0.00 86 1015.4
20260905060123 60 0 0.0 0.0 0.00 0.00 0.00 85 1015.5
20260905055143 60 0 0.0 0.0 0.00 0.00 0.00 85 1015.4
20260905054122 60 0 0.0 0.0 0.00 0.00 0.00 85 1015.4
20260905053122 60 0 0.0 0.0 0.00 0.00 0.00 85 1015.5
20260905052123 60 0 0.0 0.0 0.00 0.00 0.00 85 1015.3
20260905051122 60 0 0.0 0.0 0.00 0.00 0.00 85 1015.3
20260905050122 60 0 0.0 0.0 0.00 0.00 0.00 84 1015.3
20260905045143 61 0 0.0 0.0 0.00 0.00 0.00 84 1015.3
20260905044124 61 0 0.0 0.0 0.00 0.00 0.00 84 1015.4
20260905043124 61 0 0.0 0.0 0.00 0.00 0.00 84 1015.3
20260905042143 61 0 0.0 0.0 0.00 0.00 0.00 83 1015.2
20260905041122 61 0 0.0 0.0 0.00 0.00 0.00 82 1015.3
20260905040123 62 233 0.0 2.0 0.00 0.00 0.00 82 1015.2
20260905035123 62 0 0.0 0.0 0.00 0.00 0.00 81 1015.2
20260905034143 62 234 1.0 3.0 0.00 0.00 0.00 81 1015.1
20260905033122 62 243 0.0 3.0 0.00 0.00 0.00 80 1015.1
20260905032122 63 294 1.0 3.0 0.00 0.00 0.00 77 1015.1
20260905031145 63 316 0.0 3.0 0.00 0.00 0.00 76 1014.8
20260905030124 63 316 0.0 3.0 0.00 0.00 0.00 76 1014.7
20260905025122 63 323 0.0 3.0 0.00 0.00 0.00 74 1014.6
20260905024124 63 325 0.0 3.0 0.00 0.00 0.00 74 1014.5
20260905023122 63 333 1.0 5.0 0.00 0.00 0.00 74 1014.5
20260905022124 64 0 0.0 0.0 0.00 0.00 0.00 74 1014.4
20260905021122 64 0 0.0 0.0 0.00 0.00 0.00 74 1014.5
20260905020143 64 0 0.0 0.0 0.00 0.00 0.00 72 1014.4
20260905015122 64 0 0.0 0.0 0.00 0.00 0.00 71 1014.3
20260905014143 64 336 1.0 3.0 0.00 0.00 0.00 71 1014.4
20260905013122 65 322 1.0 5.0 0.00 0.00 0.00 71 1014.3
20260905012143 65 321 2.0 5.0 0.00 0.00 0.00 70 1014.2
20260905011122 65 358 1.0 6.0 0.00 0.00 0.00 69 1014.1
20260905010145 65 352 2.0 6.0 0.00 0.00 0.00 69 1014.1
20260905005122 65 352 1.0 5.0 0.00 0.00 0.00 68 1014.0
20260905004122 65 8 3.0 8.0 0.00 0.00 0.00 68 1014.0
20260905003124 65 11 2.0 8.0 0.00 0.00 0.00 68 1014.0
20260905002146 65 13 2.0 8.0 0.00 0.00 0.00 67 1013.9
20260905001122 65 17 2.0 6.0 0.00 0.00 0.00 68 1013.7
20260905000124 65 12 2.0 5.0 0.00 0.00 0.00 68 1013.6
20260904235122 65 12 2.0 6.0 0.00 0.00 0.00 69 1013.8
20260904234124 65 23 2.0 8.0 0.00 0.00 0.00 69 1013.8
20260904233122 65 15 2.0 6.0 0.00 0.00 0.00 69 1013.8
20260904232122 65 15 2.0 6.0 0.00 0.00 0.00 69 1013.7
20260904231122 65 349 2.0 8.0 0.00 0.00 0.00 69 1013.7
20260904230122 65 10 3.0 8.0 0.00 0.00 0.00 70 1013.7
20260904225122 65 11 2.0 6.0 0.00 0.00 0.00 70 1013.8
20260904224123 65 353 1.0 5.0 0.00 0.00 0.00 69 1013.8
20260904223123 64 29 1.0 5.0 0.00 0.00 0.00 70 1013.6
20260904222143 64 313 1.0 5.0 0.00 0.00 0.00 71 1013.6
20260904221124 64 8 2.0 11.0 0.00 0.00 0.00 72 1013.6
20260904220122 64 4 2.0 8.0 0.00 0.00 0.00 72 1013.6
20260904215122 64 291 2.0 6.0 0.00 0.00 0.00 72 1013.6